When you browse on this site, cookies collect data to enhance your experience and personalize the content and advertising you see.
Visit our Privacy Policy to learn more. By continuing to use the site, you agree to this use of cookies and data.
  • In Latvia
  • List of Countries
  • For 7 days
  • Water Temperature
  • Weather Map
  • Weather Widgets
  • user-avatar
    Login

    Hourly Weather Zaafrana

    Today, 25 May, Monday

    Time Temperature Precipitation Wind Pressure Humidity
    00:00 +17°C° 0 mm 4 mps 747 mmHg 54%
    01:00 +17°C° 0 mm 3 mps 746 mmHg 55%
    02:00 +16°C° 0 mm 3 mps 746 mmHg 58%
    03:00 +15°C° 0 mm 2 mps 746 mmHg 58%
    04:00 +15°C° 0 mm 2 mps 746 mmHg 57%
    05:00 +15°C° 0 mm 2 mps 746 mmHg 57%
    06:00 +16°C° 0 mm 2 mps 747 mmHg 49%
    07:00 +18°C° 0 mm 3 mps 747 mmHg 42%
    08:00 +21°C° 0 mm 3 mps 747 mmHg 34%
    09:00 +23°C° 0 mm 4 mps 747 mmHg 28%
    10:00 +25°C° 0 mm 4 mps 747 mmHg 22%
    11:00 +27°C° 0 mm 4 mps 747 mmHg 15%
    12:00 +29°C° 0 mm 5 mps 746 mmHg 13%
    13:00 +30°C° 0 mm 5 mps 746 mmHg 11%
    14:00 +32°C° 0 mm 5 mps 745 mmHg 10%
    15:00 +32°C° 0 mm 6 mps 745 mmHg 10%
    16:00 +32°C° 0 mm 6 mps 745 mmHg 11%
    17:00 +30°C° 0 mm 6 mps 745 mmHg 11%
    18:00 +28°C° 0 mm 5 mps 745 mmHg 15%
    19:00 +26°C° 0 mm 4 mps 745 mmHg 18%
    20:00 +24°C° 0 mm 3 mps 746 mmHg 22%
    21:00 +24°C° 0 mm 3 mps 746 mmHg 24%
    22:00 +22°C° 0 mm 3 mps 746 mmHg 25%
    23:00 +22°C° 0 mm 3 mps 747 mmHg 27%

    Tomorrow, 26 May, Tuesday

    Time Temperature Precipitation Wind Pressure Humidity
    00:00 +21°C° 0 mm 3 mps 746 mmHg 25%
    01:00 +20°C° 0 mm 3 mps 746 mmHg 24%
    02:00 +20°C° 0 mm 3 mps 745 mmHg 23%
    03:00 +20°C° 0 mm 3 mps 745 mmHg 24%
    04:00 +19°C° 0 mm 3 mps 745 mmHg 25%
    05:00 +19°C° 0 mm 3 mps 745 mmHg 26%
    06:00 +21°C° 0 mm 3 mps 745 mmHg 21%
    07:00 +25°C° 0 mm 4 mps 746 mmHg 17%
    08:00 +27°C° 0 mm 4 mps 746 mmHg 13%
    09:00 +29°C° 0 mm 4 mps 746 mmHg 12%
    10:00 +32°C° 0 mm 4 mps 746 mmHg 10%
    11:00 +33°C° 0 mm 4 mps 746 mmHg 9%
    12:00 +34°C° 0 mm 4 mps 745 mmHg 9%
    13:00 +35°C° 0 mm 4 mps 744 mmHg 9%
    14:00 +36°C° 0 mm 4 mps 744 mmHg 9%
    15:00 +35°C° 0 mm 5 mps 744 mmHg 10%
    16:00 +35°C° 0 mm 5 mps 743 mmHg 11%
    17:00 +34°C° 0 mm 5 mps 743 mmHg 12%
    18:00 +32°C° 0 mm 5 mps 744 mmHg 16%
    19:00 +29°C° 0 mm 4 mps 744 mmHg 20%
    20:00 +26°C° 0 mm 3 mps 744 mmHg 23%
    21:00 +26°C° 0 mm 3 mps 744 mmHg 27%
    22:00 +25°C° 0 mm 3 mps 745 mmHg 30%
    23:00 +25°C° 0 mm 3 mps 745 mmHg 33%

    Day after tomorrow, 27 May, Wednesday

    Time Temperature Precipitation Wind Pressure Humidity
    00:00 +24°C° 0 mm 3 mps 744 mmHg 32%
    01:00 +22°C° 0 mm 3 mps 744 mmHg 32%
    02:00 +22°C° 0 mm 3 mps 744 mmHg 31%
    03:00 +21°C° 0 mm 3 mps 744 mmHg 32%
    04:00 +21°C° 0 mm 3 mps 744 mmHg 32%
    05:00 +21°C° 0 mm 3 mps 744 mmHg 33%
    06:00 +24°C° 0 mm 3 mps 745 mmHg 29%
    07:00 +26°C° 0 mm 3 mps 745 mmHg 25%
    08:00 +28°C° 0 mm 3 mps 746 mmHg 21%
    09:00 +30°C° 0 mm 3 mps 745 mmHg 19%
    10:00 +31°C° 0 mm 3 mps 745 mmHg 17%
    11:00 +34°C° 0 mm 4 mps 745 mmHg 15%
    12:00 +35°C° 0 mm 4 mps 745 mmHg 15%
    13:00 +35°C° 0 mm 5 mps 744 mmHg 14%
    14:00 +36°C° 0 mm 6 mps 744 mmHg 14%
    15:00 +36°C° 0 mm 6 mps 744 mmHg 15%
    16:00 +35°C° 0 mm 6 mps 744 mmHg 16%
    17:00 +34°C° 0 mm 7 mps 744 mmHg 17%
    18:00 +32°C° 0 mm 6 mps 744 mmHg 24%
    19:00 +29°C° 0 mm 6 mps 745 mmHg 30%
    20:00 +27°C° 0 mm 5 mps 746 mmHg 37%
    21:00 +25°C° 0 mm 5 mps 746 mmHg 43%
    22:00 +23°C° 0 mm 4 mps 746 mmHg 48%
    23:00 +22°C° 0 mm 4 mps 746 mmHg 54%

    28 May, Thursday

    Time Temperature Precipitation Wind Pressure Humidity
    00:00 +21°C° 0 mm 3 mps 746 mmHg 55%
    01:00 +21°C° 0 mm 3 mps 746 mmHg 56%
    02:00 +20°C° 0 mm 3 mps 746 mmHg 57%
    03:00 +20°C° 0 mm 3 mps 746 mmHg 60%
    04:00 +19°C° 0 mm 3 mps 746 mmHg 62%
    05:00 +19°C° 0 mm 3 mps 746 mmHg 64%
    06:00 +21°C° 0 mm 3 mps 746 mmHg 56%
    07:00 +22°C° 0 mm 4 mps 747 mmHg 48%
    08:00 +25°C° 0 mm 4 mps 747 mmHg 40%
    09:00 +27°C° 0 mm 4 mps 747 mmHg 34%
    10:00 +28°C° 0 mm 4 mps 746 mmHg 28%
    11:00 +30°C° 0 mm 4 mps 746 mmHg 22%
    12:00 +32°C° 0 mm 5 mps 746 mmHg 19%
    13:00 +33°C° 0 mm 5 mps 745 mmHg 16%
    14:00 +34°C° 0 mm 6 mps 745 mmHg 13%
    15:00 +34°C° 0 mm 6 mps 745 mmHg 13%
    16:00 +33°C° 0 mm 7 mps 744 mmHg 14%
    17:00 +33°C° 0 mm 7 mps 744 mmHg 14%
    18:00 +30°C° 0 mm 6 mps 745 mmHg 18%
    19:00 +28°C° 0 mm 5 mps 745 mmHg 21%
    20:00 +26°C° 0 mm 3 mps 746 mmHg 25%
    21:00 +25°C° 0 mm 4 mps 746 mmHg 31%
    22:00 +23°C° 0 mm 4 mps 746 mmHg 37%
    23:00 +22°C° 0 mm 5 mps 746 mmHg 43%

    29 May, Friday

    Time Temperature Precipitation Wind Pressure Humidity
    00:00 +21°C° 0 mm 4 mps 746 mmHg 47%
    01:00 +20°C° 0 mm 4 mps 746 mmHg 52%
    02:00 +20°C° 0 mm 3 mps 746 mmHg 56%
    03:00 +19°C° 0 mm 3 mps 746 mmHg 54%
    04:00 +19°C° 0 mm 3 mps 746 mmHg 53%
    05:00 +19°C° 0 mm 3 mps 746 mmHg 52%
    06:00 +20°C° 0 mm 3 mps 747 mmHg 46%
    07:00 +22°C° 0 mm 3 mps 747 mmHg 40%
    08:00 +25°C° 0 mm 4 mps 747 mmHg 34%
    09:00 +26°C° 0 mm 4 mps 747 mmHg 30%
    10:00 +28°C° 0 mm 4 mps 747 mmHg 27%
    11:00 +29°C° 0 mm 4 mps 747 mmHg 24%
    12:00 +30°C° 0 mm 4 mps 746 mmHg 22%
    13:00 +32°C° 0 mm 5 mps 746 mmHg 19%
    14:00 +33°C° 0 mm 6 mps 746 mmHg 17%
    15:00 +32°C° 0 mm 6 mps 746 mmHg 17%
    16:00 +32°C° 0 mm 7 mps 745 mmHg 17%
    17:00 +32°C° 0 mm 7 mps 745 mmHg 17%
    18:00 +28°C° 0 mm 6 mps 746 mmHg 24%
    19:00 +26°C° 0 mm 5 mps 746 mmHg 31%
    20:00 +23°C° 0 mm 4 mps 747 mmHg 37%
    21:00 +22°C° 0 mm 4 mps 747 mmHg 41%
    22:00 +21°C° 0 mm 4 mps 747 mmHg 45%
    23:00 +20°C° 0 mm 4 mps 747 mmHg 48%

    30 May, Saturday

    Time Temperature Precipitation Wind Pressure Humidity
    00:00 +20°C° 0 mm 4 mps 747 mmHg 49%
    01:00 +19°C° 0 mm 4 mps 746 mmHg 49%
    02:00 +19°C° 0 mm 3 mps 746 mmHg 49%
    03:00 +18°C° 0 mm 3 mps 746 mmHg 49%
    04:00 +18°C° 0 mm 3 mps 746 mmHg 48%
    05:00 +18°C° 0 mm 3 mps 746 mmHg 47%
    06:00 +20°C° 0 mm 3 mps 747 mmHg 41%
    07:00 +22°C° 0 mm 4 mps 747 mmHg 36%
    08:00 +25°C° 0 mm 5 mps 747 mmHg 30%
    09:00 +27°C° 0 mm 5 mps 747 mmHg 24%
    10:00 +28°C° 0 mm 5 mps 747 mmHg 18%
    11:00 +30°C° 0 mm 5 mps 746 mmHg 13%
    12:00 +32°C° 0 mm 5 mps 746 mmHg 11%
    13:00 +33°C° 0 mm 5 mps 746 mmHg 10%
    14:00 +34°C° 0 mm 6 mps 745 mmHg 9%
    15:00 +34°C° 0 mm 6 mps 745 mmHg 10%
    16:00 +33°C° 0 mm 6 mps 745 mmHg 11%
    17:00 +33°C° 0 mm 6 mps 745 mmHg 12%
    18:00 +29°C° 0 mm 6 mps 745 mmHg 20%
    19:00 +27°C° 0 mm 6 mps 746 mmHg 29%
    20:00 +23°C° 0 mm 5 mps 746 mmHg 37%
    21:00 +23°C° 0 mm 5 mps 746 mmHg 39%
    22:00 +22°C° 0 mm 4 mps 747 mmHg 42%
    23:00 +21°C° 0 mm 4 mps 747 mmHg 44%
    Show more